Location: Newark
(49.9828°N, 3.1606°E)
Time: 21:01:03
(UTC+00:00)

Envisat - Pass Details

Date: 25 January 2020
Orbit: 764 x 766 km, 98.1° (Epoch: 25 February)

Event Time Altitude Azimuth Distance (km) Brightness Sun altitude
Rises 19:10:01 0° 220° (SW) 3,225 6.8 -25.6°
Reaches altitude 10° 19:13:42 10° 248° (WSW) 2,305 6.3 -26.2°
Maximum altitude 19:15:58 13° 275° (W) 2,111 6.2 -26.6°
Drops below altitude 10° 19:18:15 10° 302° (WNW) 2,313 6.2 -26.9°
Sets 19:21:59 0° 330° (NNW) 3,246 6.7 -27.5°
